Wind_Speed
35 34 34 33 29 27 25 22 20 21 22 17 9 5 12 14 15 13 13 15 15 14 15 16 18 18 18 18 18 17 16 16 15 16 17 16 16 15 13 12 12 12 12 13 13 13 13 12 12 11 10 9 8 7 6 5 5 5 6 8 9 10 11 12 12 11 11 11 11 11 12 13 14 14 15 15 15 16 17 17 17 17 17 16 15 15
35 34 33 31 28 25 24 24 22 23 26 23 15 8 15 16 16 14 15 17 17 16 15 16 19 20 21 21 22 23 21 19 17 16 17 18 18 17 15 14 14 13 12 12 13 13 13 13 13 12 11 10 9 8 7 6 6 5 5 6 8 9 10 11 12 12 11 11 11 11 11 11 12 13 13 13 14 14 15 15 15 15 15 15 14 14
34 34 32 29 28 26 24 26 28 26 27 25 20 14 17 17 15 13 15 17 17 17 15 14 18 21 23 24 26 27 23 19 18 18 18 19 19 18 17 16 15 14 13 12 13 13 13 14 14 13 12 11 10 9 8 7 6 6 5 5 7 8 9 10 11 12 11 11 11 11 11 11 11 11 11 12 12 12 12 13 13 13 14 13 13 13
32 31 29 28 27 26 25 28 32 31 31 29 24 16 14 17 16 13 13 14 16 18 16 13 15 19 22 23 26 26 22 19 21 21 20 20 20 20 19 18 17 15 14 14 14 14 14 14 14 14 13 12 11 10 9 8 8 7 7 6 6 7 8 10 11 11 11 11 11 11 11 10 11 11 11 11 10 10 10 10 11 11 11 11 11 11
29 27 26 26 26 25 25 29 33 33 31 28 25 20 15 17 16 13 13 14 15 17 15 13 15 17 19 20 22 23 22 20 22 23 22 21 21 21 21 20 19 17 16 16 15 15 15 15 15 14 14 13 12 12 11 10 9 8 8 7 6 7 8 9 10 10 11 11 10 11 11 10 11 11 11 10 10 10 10 9 9 9 10 10 10 10
24 25 24 23 23 25 25 28 34 36 33 27 23 19 15 15 14 13 12 13 15 16 16 15 15 16 16 17 18 19 21 22 24 25 25 24 22 22 22 21 20 20 18 17 16 16 16 16 16 15 14 14 13 12 11 10 10 9 9 8 7 7 7 8 9 9 9 10 10 10 11 10 10 11 11 10 10 10 10 9 8 8 9 9 8 8
20 22 22 18 17 22 26 30 35 34 30 26 22 11 10 14 12 11 11 11 13 16 16 15 15 16 15 15 14 15 19 22 24 26 26 26 24 23 23 22 21 20 20 19 17 16 16 15 15 15 15 14 14 12 12 11 10 10 10 9 8 7 8 8 8 8 8 8 9 9 9 9 9 10 10 10 10 10 9 9 8 8 8 8 8 8
19 19 20 19 15 19 25 29 31 30 26 25 22 9 13 17 13 11 11 10 12 14 15 14 15 15 15 14 11 10 15 19 21 23 25 26 27 26 24 23 22 21 20 19 18 17 16 16 15 15 15 14 14 12 12 11 11 11 11 10 9 8 8 8 8 8 7 7 8 8 8 8 8 9 9 9 9 9 9 8 8 8 7 7 7 7
14 14 18 21 20 22 24 24 24 27 28 28 24 18 16 15 12 11 8 7 13 15 13 13 15 16 15 14 12 8 8 12 16 19 23 27 30 28 25 23 22 22 22 21 20 18 18 18 17 16 15 14 14 13 12 12 11 11 12 11 10 9 8 9 8 8 7 6 6 6 6 6 7 8 8 8 9 8 8 8 8 8 8 7 7 7
10 13 16 18 22 22 21 21 23 25 29 30 26 24 22 16 10 8 6 8 15 17 15 13 14 14 14 13 14 12 9 8 11 14 18 26 34 33 27 25 23 22 23 22 21 20 19 19 19 17 16 14 13 13 12 12 11 11 11 11 11 9 9 9 9 9 8 6 5 5 5 5 6 7 7 7 8 8 8 8 8 8 8 8 7 7
11 13 17 19 23 24 21 21 24 25 29 31 28 25 23 23 19 13 13 17 20 19 16 16 15 14 13 12 14 14 11 9 8 9 11 17 28 35 32 27 25 23 22 21 20 20 20 20 19 17 16 15 14 13 12 12 12 12 11 11 11 10 9 9 10 9 9 7 6 5 5 5 5 6 6 6 7 7 7 7 7 8 8 8 8 7
17 16 18 20 22 25 25 21 21 26 31 30 26 24 22 24 26 21 20 26 24 20 16 12 13 16 14 12 10 11 12 12 9 7 8 9 16 30 34 27 24 23 21 20 19 20 21 20 19 17 16 15 15 13 12 12 13 13 12 12 11 11 10 10 10 10 9 8 7 6 5 5 5 5 5 6 5 6 5 6 6 7 7 7 8 7
22 20 18 22 22 23 26 24 20 25 32 29 21 21 21 21 25 22 20 24 19 14 14 10 9 15 14 10 8 9 11 13 12 9 9 8 9 21 33 28 23 23 20 19 19 19 21 20 19 18 17 16 16 14 13 13 13 13 13 12 12 11 11 10 10 10 9 8 8 7 7 6 5 5 5 5 5 5 5 5 5 6 7 7 8 7
20 15 11 18 19 17 22 26 22 20 28 31 22 18 20 22 26 23 17 18 10 6 10 10 11 14 14 10 8 10 10 11 13 11 10 8 6 11 26 27 23 23 21 20 20 20 21 20 19 18 18 17 17 16 14 14 14 13 13 13 13 12 11 11 11 10 9 9 9 8 8 7 6 5 5 5 5 5 5 4 5 6 7 7 7 7
19 15 11 15 14 11 14 21 23 18 18 24 23 20 20 22 26 21 12 10 8 7 6 9 16 15 12 12 11 10 10 10 11 10 9 8 6 6 14 18 19 20 23 24 22 20 20 19 19 19 18 18 17 17 16 15 15 14 14 14 14 13 13 12 12 11 10 10 9 9 9 8 7 6 5 5 5 5 5 5 5 5 6 6 6 6
20 19 16 13 12 12 9 13 22 20 14 13 18 21 20 21 23 18 14 15 14 12 9 10 19 18 12 12 12 12 11 9 9 9 9 8 8 9 10 11 12 14 21 26 24 21 21 20 20 19 18 17 17 17 17 16 16 16 16 15 14 14 14 14 13 12 11 11 10 10 9 9 8 8 7 5 4 5 5 4 4 5 5 5 5 6
22 21 15 9 6 10 9 15 21 24 18 12 15 18 16 19 22 17 18 21 19 16 12 12 18 18 15 14 12 12 11 10 9 9 9 9 8 10 11 12 12 11 15 24 26 23 22 21 20 20 19 17 17 17 16 17 18 18 18 17 16 15 14 14 14 14 13 12 12 11 11 10 9 8 8 7 6 6 6 4 4 5 6 6 6 6
22 21 13 10 7 7 10 23 28 26 21 15 16 17 10 16 25 22 22 23 21 19 12 12 14 14 17 15 12 12 12 13 12 9 10 10 8 9 11 11 13 12 13 20 24 24 23 22 21 20 19 19 19 18 17 18 20 21 20 19 18 17 16 15 15 15 14 14 14 13 13 12 11 10 9 8 8 8 7 6 5 5 6 7 7 7
24 21 14 15 12 7 11 28 33 27 26 26 23 18 11 14 22 25 25 24 22 20 11 10 13 14 18 16 12 12 13 15 15 12 11 10 9 9 10 10 11 14 16 18 20 21 22 22 22 21 20 21 22 21 19 19 20 22 22 21 20 19 18 17 15 15 15 15 15 15 14 13 13 12 11 10 10 9 9 8 8 7 7 8 7 7
27 25 19 20 19 12 13 29 36 30 29 30 26 20 16 14 15 20 23 23 22 20 13 11 13 16 19 17 13 12 12 13 14 15 14 13 13 12 11 10 10 13 15 17 19 19 20 22 23 23 22 23 25 25 22 20 20 22 22 21 22 21 20 19 18 17 17 16 16 15 15 14 14 13 12 12 12 11 11 10 10 9 9 9 8 8
25 29 23 20 22 19 17 27 37 33 28 27 25 20 17 14 11 13 18 22 22 21 19 16 14 15 15 14 14 13 11 12 13 16 16 15 17 17 14 13 12 13 15 17 19 20 21 23 24 25 24 25 28 27 25 22 21 22 22 21 21 21 20 20 20 20 19 18 17 16 16 15 15 14 13 13 13 13 12 12 12 12 12 11 10 9
23 28 26 21 24 26 21 25 36 38 31 26 23 17 16 16 9 9 13 17 20 22 24 21 18 17 13 13 17 14 11 13 15 17 19 16 16 17 17 16 15 16 17 18 21 23 23 24 25 26 25 25 28 28 25 23 22 21 21 21 21 20 19 19 20 21 20 19 18 18 18 17 16 15 15 14 14 14 14 14 14 14 13 12 12 11
23 27 28 23 25 28 23 22 33 40 33 27 24 18 17 17 9 9 14 13 12 15 20 21 21 19 17 15 15 12 10 13 15 17 18 17 16 16 17 19 19 20 22 22 23 24 25 26 26 26 25 24 26 28 27 25 23 22 22 21 20 20 19 18 18 19 20 19 19 19 20 20 19 18 17 16 16 15 15 16 16 15 15 14 14 13
21 24 25 24 23 25 23 21 29 37 33 27 26 22 18 18 15 16 18 13 10 14 17 19 22 23 21 18 14 11 11 12 13 16 17 17 18 19 21 23 23 24 24 23 22 21 22 24 24 25 26 24 23 26 28 27 25 24 23 22 21 20 19 18 17 18 18 19 19 19 20 21 21 20 19 18 18 17 17 17 17 16 16 16 16 15
18 22 22 23 23 21 21 22 27 34 31 25 25 22 19 19 19 20 19 15 15 20 21 20 20 22 23 22 19 16 13 11 11 14 17 18 19 20 21 22 22 22 20 20 22 22 22 23 23 24 26 23 19 21 25 28 28 26 25 25 23 21 20 19 18 18 17 18 18 18 20 21 21 21 20 20 19 19 18 18 18 18 17 18 18 17
16 21 21 23 23 20 21 23 27 33 32 29 24 20 23 26 24 23 23 20 18 23 26 26 22 21 22 25 25 23 19 15 13 14 16 19 19 19 19 20 20 21 21 21 22 22 22 23 24 25 25 22 19 19 21 25 27 28 27 27 25 24 23 21 20 19 19 20 19 19 19 20 21 22 21 20 20 20 20 19 19 19 19 19 19 19
15 18 20 23 25 24 22 23 30 34 33 32 26 21 27 33 31 28 27 25 24 25 29 31 29 27 26 27 28 26 22 18 17 15 16 19 21 20 20 21 22 23 24 24 22 21 21 22 25 25 25 24 23 22 22 22 24 27 28 28 26 25 24 22 21 21 21 21 21 19 20 20 21 22 22 21 21 20 20 20 20 20 20 20 21 20
18 18 20 22 24 25 23 23 34 37 32 31 30 26 30 35 34 31 30 30 30 29 30 33 34 33 32 33 32 28 20 16 17 17 17 18 20 21 21 22 23 24 24 24 22 22 22 23 26 27 26 26 26 26 25 24 24 26 27 27 26 25 24 22 22 23 23 23 23 21 21 21 22 23 22 21 20 20 20 20 21 21 21 21 22 21
21 20 21 23 24 26 25 26 34 36 31 32 34 32 31 34 35 34 34 34 32 31 33 34 35 36 35 35 34 30 22 18 19 21 22 21 19 19 22 24 24 24 24 22 21 23 24 24 26 28 29 28 27 26 26 25 24 25 25 25 26 26 25 24 24 25 26 25 24 24 24 24 23 23 22 21 20 20 20 20 20 20 19 20 21 22
19 17 18 22 24 27 29 30 32 32 30 33 36 36 35 35 35 34 35 36 36 36 36 35 34 35 34 32 33 33 30 26 23 22 26 27 23 20 21 22 23 24 25 24 23 23 24 23 24 28 30 28 27 29 30 29 27 26 26 25 26 26 24 23 23 26 28 29 27 26 26 25 24 23 22 22 21 20 21 20 20 20 19 19 21 22
15 15 16 19 23 26 27 29 31 32 30 32 37 39 38 37 36 35 37 39 39 39 39 38 35 33 31 30 31 32 33 30 27 24 25 27 26 23 21 21 23 24 24 24 25 25 26 24 22 25 27 27 29 31 31 30 28 28 28 27 26 25 22 20 20 23 27 31 32 31 29 28 26 23 22 22 21 21 21 21 21 21 20 19 20 21
13 15 15 17 21 24 23 22 24 25 26 29 33 35 34 34 36 37 39 41 41 41 40 40 39 36 33 31 29 29 29 28 26 24 23 25 26 25 23 22 23 24 23 23 22 22 25 24 22 23 24 25 26 27 27 27 26 27 28 27 26 24 21 20 19 20 23 28 33 34 32 30 27 22 21 23 23 22 22 22 23 23 21 21 21 22
10 12 14 16 18 20 21 20 18 17 21 26 29 30 30 33 36 38 39 40 42 43 41 40 41 40 37 35 32 29 28 28 27 25 23 23 24 24 24 25 25 24 24 25 23 22 25 25 23 25 26 25 24 24 25 25 24 25 25 24 23 22 20 18 17 16 17 21 27 30 30 29 26 23 23 26 26 25 24 24 24 24 23 23 23 24
8 9 12 13 14 16 19 18 16 16 22 26 28 27 27 31 35 38 39 38 40 44 44 43 42 42 40 39 38 34 32 30 29 28 27 28 28 27 27 28 27 25 23 24 25 26 28 26 24 25 26 24 23 23 25 24 23 24 25 23 22 23 21 18 15 16 16 17 21 25 25 27 27 26 27 28 28 28 28 28 27 26 26 26 26 26
7 8 9 10 11 13 17 19 18 19 22 26 27 27 27 28 30 33 34 35 35 40 45 45 44 44 42 41 42 41 37 32 30 29 28 28 31 33 33 32 30 26 23 23 24 24 25 25 24 23 24 24 22 21 23 23 22 22 22 23 23 24 22 19 16 16 16 16 19 22 23 25 27 28 30 31 31 31 30 30 31 30 30 30 30 29
7 8 9 9 9 10 13 17 19 20 22 24 27 29 28 27 26 27 29 30 30 34 41 45 46 45 43 42 43 44 41 36 32 33 31 27 25 27 31 34 34 29 27 25 23 22 21 21 21 20 21 24 25 22 21 21 22 24 22 21 22 22 21 19 17 15 15 15 17 18 19 19 21 24 27 30 32 33 33 33 34 34 34 34 33 32
6 7 8 9 9 9 11 13 17 19 21 23 25 27 27 27 26 26 27 28 28 29 33 38 42 44 43 41 39 39 41 38 34 35 37 34 29 25 24 27 29 30 31 32 30 26 23 21 22 22 21 22 23 22 20 18 20 23 21 18 18 19 19 17 16 16 17 17 17 17 16 16 17 19 21 23 27 30 32 34 35 36 36 36 36 36
7 6 7 8 8 8 9 11 14 18 19 20 21 23 26 27 26 25 25 26 28 28 28 29 33 37 39 37 31 30 35 37 35 34 37 38 37 34 30 27 26 27 30 34 36 34 29 24 24 26 26 27 27 27 26 23 22 22 22 20 18 19 20 18 17 17 19 19 19 19 18 17 17 17 18 19 20 22 24 26 28 30 32 33 34 36
8 8 7 6 6 7 9 10 13 16 18 19 19 20 22 23 22 22 25 28 27 27 26 26 28 31 33 33 30 26 27 31 32 33 35 36 36 37 36 33 31 31 31 31 34 36 35 31 27 26 25 25 27 29 31 32 31 31 31 30 29 28 26 24 23 23 23 22 21 21 21 21 21 21 21 21 21 20 20 20 21 23 25 27 29 32
9 9 8 7 7 7 9 11 14 16 18 19 19 18 18 19 19 21 25 28 28 27 27 28 29 30 31 31 30 28 26 27 28 30 32 32 31 34 36 33 31 31 32 31 31 33 36 37 36 33 30 27 27 28 30 33 36 37 38 37 35 32 29 27 27 27 28 26 24 24 24 23 24 25 24 24 24 24 23 23 23 24 24 25 25 26
9 10 10 9 9 9 10 13 14 15 16 17 17 15 15 17 20 22 24 26 27 27 28 29 29 31 32 32 31 31 29 28 28 28 30 30 28 29 32 33 30 29 29 29 29 30 33 35 37 37 36 35 34 33 33 34 35 38 39 37 36 34 31 29 29 30 31 30 28 27 26 25 26 26 25 24 25 25 25 26 26 26 26 26 25 25
10 10 10 10 10 11 12 13 12 12 13 14 15 15 15 16 20 22 23 24 26 26 27 28 28 29 31 31 32 32 31 30 29 27 27 29 30 31 31 31 31 30 30 30 29 29 30 32 34 36 37 38 37 37 37 37 36 37 38 38 37 36 34 33 32 32 32 32 31 31 29 29 29 29 27 27 26 25 26 27 28 28 26 26 26 26
10 11 11 11 12 13 13 13 12 10 9 11 14 15 16 16 18 20 22 23 24 26 27 27 27 28 29 29 30 31 31 32 32 30 28 27 29 33 35 35 35 34 34 34 34 33 33 33 34 35 36 38 38 38 39 39 40 40 40 39 39 38 37 36 35 34 34 33 33 32 32 31 32 32 31 30 29 28 27 28 29 28 26 26 26 26
9 11 11 12 13 14 14 14 13 11 10 12 13 12 13 15 16 18 20 21 22 25 26 27 27 27 27 28 28 29 30 31 32 33 32 30 29 30 32 34 36 35 34 35 36 37 36 37 37 36 36 38 39 39 40 40 40 41 41 41 40 40 39 39 38 37 37 35 34 34 33 32 33 33 33 32 32 31 31 30 30 29 28 29 29 30
10 11 12 12 13 14 15 15 15 13 13 13 13 12 12 14 15 17 19 19 20 22 24 25 26 26 27 27 27 27 27 29 30 32 33 33 33 32 31 31 32 33 33 34 35 36 36 37 38 39 39 39 40 40 41 41 41 41 41 41 40 40 40 40 40 39 39 38 37 36 35 34 34 34 34 35 35 34 33 33 33 32 32 32 32 32
10 12 12 12 12 14 15 15 15 14 14 14 15 15 15 15 16 17 18 18 19 20 21 22 23 24 25 26 27 27 26 25 27 29 30 31 33 34 33 32 31 32 33 34 35 36 36 36 37 38 40 41 41 41 42 42 43 43 42 42 41 41 40 40 40 40 40 41 40 39 37 36 35 35 36 37 36 35 35 35 35 34 34 35 36 35
9 12 12 11 11 12 13 14 13 13 13 14 15 16 17 17 17 17 17 18 19 19 20 20 21 21 22 23 24 25 25 24 24 25 27 29 31 32 34 34 33 33 34 35 36 37 37 38 38 38 39 41 42 43 43 43 43 44 44 44 43 43 42 40 40 40 41 42 42 41 39 37 36 36 38 39 38 37 37 36 35 34 35 37 38 37
9 11 12 11 10 9 10 12 12 11 12 13 14 14 16 17 17 17 18 18 19 20 20 20 20 20 20 21 22 23 23 23 22 22 23 25 28 30 32 33 33 32 32 33 35 36 37 39 40 40 40 41 42 43 44 44 43 43 43 44 44 45 44 43 42 41 41 41 42 42 40 39 39 39 39 40 41 41 39 38 36 36 36 38 38 37
11 13 12 11 10 9 10 10 10 10 11 11 12 13 14 15 16 17 17 18 20 21 22 21 21 21 21 21 21 22 22 22 21 20 20 21 25 28 31 33 33 32 30 30 32 33 34 37 39 41 42 42 43 44 45 45 45 44 43 43 44 44 45 45 45 44 43 42 43 43 42 42 43 43 42 42 43 43 42 40 40 39 39 40 40 40
11 13 12 11 10 10 10 11 11 11 12 12 13 14 14 14 15 16 16 16 18 20 21 21 21 22 22 22 22 22 22 22 21 20 19 19 20 22 26 30 32 33 32 32 32 32 32 33 35 38 40 41 42 43 44 46 46 46 45 45 45 44 44 45 46 47 46 45 44 44 45 45 46 45 45 44 44 43 43 44 45 44 42 42 42 43
12 14 13 12 12 11 12 13 14 14 13 14 15 15 15 14 15 16 15 15 16 17 19 20 20 21 22 22 23 23 23 24 23 22 21 19 19 19 21 24 26 29 30 32 32 33 33 33 33 35 36 38 39 40 42 44 45 47 47 47 47 46 46 45 46 48 49 49 47 47 47 48 48 48 48 47 44 43 43 45 47 47 46 45 44 44
Wind_Direction
223 223 223 222 218 219 213 194 193 197 183 162 144 225 242 232 231 227 227 237 237 234 230 227 228 230 231 231 231 228 227 224 216 211 211 210 212 213 211 210 207 205 204 204 202 201 204 208 202 196 199 201 197 189 177 164 148 132 123 118 111 104 101 101 101 98 96 97 98 101 103 101 99 97 95 95 95 97 100 103 106 108 108 108 107 106
222 222 222 222 215 213 209 188 180 193 187 161 142 209 235 225 221 221 223 230 233 230 229 233 233 230 230 230 229 227 226 226 220 214 211 209 211 213 213 214 211 209 208 205 204 203 204 210 208 201 202 204 202 199 192 179 162 152 145 132 122 113 107 103 102 102 101 103 104 106 109 109 106 104 100 98 96 95 97 100 103 106 107 108 107 106
221 221 220 219 214 208 203 188 179 185 185 168 160 195 226 221 217 220 222 225 229 228 232 242 237 228 227 230 228 225 225 225 220 216 215 212 212 212 211 214 216 213 211 208 206 206 207 211 212 208 205 206 205 205 202 193 175 167 169 157 138 125 114 108 105 105 104 102 103 105 108 112 114 114 110 106 102 99 98 98 100 102 104 106 107 108
221 221 219 217 214 206 200 192 185 184 183 179 172 179 218 221 213 223 230 229 231 229 233 243 236 226 225 229 230 226 224 224 218 214 214 213 215 214 209 211 215 213 211 212 209 208 210 212 215 212 208 205 205 206 206 201 190 182 182 175 156 140 125 114 109 107 105 103 104 103 101 106 112 115 116 114 112 107 104 102 102 102 103 105 107 109
223 220 217 217 214 205 200 196 190 185 182 184 178 177 206 213 207 223 233 236 240 237 239 239 231 225 222 229 234 230 227 228 227 221 214 211 214 217 214 211 212 210 209 212 213 212 212 214 216 214 209 205 203 205 208 205 199 195 192 184 171 156 138 124 117 112 109 108 107 104 101 101 105 111 115 117 118 116 114 112 111 110 110 110 111 112
225 220 213 212 213 206 200 196 192 187 186 189 179 179 206 208 208 230 234 237 243 241 243 240 231 225 222 231 236 227 223 229 235 231 220 212 212 216 218 215 212 210 209 212 213 213 214 215 214 212 209 205 201 201 205 206 203 201 201 194 184 171 154 138 129 123 116 114 110 105 105 104 103 107 112 116 119 120 121 122 120 118 118 119 118 117
220 215 206 197 207 210 202 199 196 190 190 188 170 169 236 225 218 242 247 252 247 236 238 237 230 225 224 232 236 227 221 226 234 231 223 218 214 212 216 216 214 211 211 213 214 215 216 217 216 213 211 207 202 198 199 203 204 203 204 199 192 182 168 154 144 138 131 123 117 110 108 107 107 108 111 113 115 118 123 126 126 124 122 123 123 122
221 215 208 197 199 209 205 203 199 190 184 173 159 173 248 236 230 237 236 255 253 237 236 234 228 226 225 224 227 231 222 223 230 228 226 227 218 211 211 213 213 212 211 214 215 216 217 219 219 217 214 209 203 198 196 199 201 202 204 202 197 190 179 169 159 154 151 140 128 120 115 113 114 115 116 116 115 117 120 123 128 128 126 126 124 124
216 212 211 206 205 208 204 198 196 192 181 166 162 181 213 226 236 231 223 253 247 225 217 227 228 225 226 226 226 232 228 227 233 231 232 231 222 212 210 210 211 212 212 213 215 215 217 219 220 218 216 212 206 200 197 198 199 202 205 203 198 193 187 182 175 172 173 164 145 134 130 125 123 125 125 126 124 123 123 124 128 129 128 128 126 126
195 199 198 202 204 200 195 193 198 195 181 173 174 179 188 196 210 228 243 262 250 226 206 214 226 221 221 231 232 233 239 240 241 243 239 230 222 215 211 209 207 211 214 214 215 216 218 221 221 220 217 214 209 202 199 200 200 202 206 204 199 197 194 190 187 187 188 181 168 159 148 140 139 138 136 134 134 134 133 133 135 132 131 131 129 128
176 192 197 209 206 194 188 196 205 193 179 181 178 174 185 189 185 196 214 223 235 233 214 210 222 222 215 223 233 234 241 250 251 258 252 234 225 219 213 208 206 208 212 213 216 217 219 223 224 223 220 217 215 207 201 201 201 204 207 206 201 200 199 196 196 197 196 191 183 180 169 159 156 150 145 146 146 143 143 146 145 138 137 136 132 130
177 188 204 216 210 198 194 193 196 186 181 187 183 177 187 190 189 192 200 210 221 230 224 218 228 230 217 209 226 238 241 247 252 263 263 257 240 222 211 207 206 207 209 210 216 218 220 224 226 227 225 223 222 215 207 205 205 206 208 207 202 200 201 200 202 203 201 197 192 188 182 173 169 161 155 154 154 153 157 159 151 145 147 145 138 134
187 190 208 219 213 207 204 199 196 187 185 191 192 192 192 190 194 193 195 207 219 233 223 213 231 239 232 212 223 248 250 248 250 261 266 277 273 225 209 204 206 208 208 208 214 220 221 222 224 227 229 228 228 224 215 212 212 209 209 211 206 198 199 202 205 211 207 200 196 191 187 179 171 170 170 165 160 163 170 167 158 158 160 154 148 146
191 190 214 229 222 217 219 216 208 192 192 196 199 206 201 192 195 195 200 210 228 258 213 212 240 243 246 244 237 252 265 263 258 266 270 276 294 225 204 202 208 213 214 210 211 218 221 221 221 225 228 228 229 227 220 218 219 216 212 214 212 202 198 200 204 212 211 202 196 193 190 183 172 173 181 178 171 169 174 177 174 175 172 162 158 158
185 190 214 241 246 246 239 228 213 192 191 200 204 213 207 195 193 191 195 212 245 263 207 233 256 245 247 257 251 251 262 266 263 269 273 265 265 223 198 203 214 222 224 218 213 215 217 221 222 224 227 226 227 228 225 223 224 224 221 218 216 209 201 199 202 209 212 205 197 196 197 192 179 174 184 192 182 173 177 186 187 182 176 167 162 161
177 188 205 228 253 258 238 219 211 193 177 187 205 219 215 198 189 180 181 196 216 222 190 216 246 247 258 264 255 249 251 260 263 264 267 260 249 236 220 219 224 234 231 221 215 214 215 219 222 223 225 224 226 228 226 227 226 226 227 225 221 215 207 203 203 208 214 213 206 201 202 202 194 183 184 193 193 187 189 192 184 174 171 173 169 162
182 190 199 184 212 248 210 182 189 183 178 189 209 225 225 203 191 178 184 199 205 204 199 221 237 246 258 262 256 246 244 254 260 259 255 257 253 236 230 233 233 239 230 215 213 217 218 221 224 224 225 225 227 227 223 224 227 227 226 228 226 221 215 210 207 209 215 219 219 213 208 208 208 201 194 193 196 199 203 201 192 178 175 179 177 170
188 188 185 140 146 242 200 174 176 175 171 174 201 225 233 208 203 192 186 194 196 192 207 240 241 246 253 257 259 250 246 249 251 254 251 251 253 233 225 229 230 231 221 211 214 220 221 224 228 229 228 228 229 227 219 217 224 227 224 226 229 227 223 220 214 212 214 220 225 225 221 218 217 216 209 205 206 206 205 206 208 199 192 191 185 177
190 185 169 140 152 208 187 175 176 176 171 167 183 205 202 199 209 204 193 190 188 185 201 243 245 249 253 256 261 251 245 244 243 246 245 241 239 228 224 231 232 229 224 217 218 220 220 223 228 232 231 230 232 230 222 216 221 227 225 225 228 230 230 230 226 222 219 221 225 228 230 228 227 226 221 216 217 216 211 210 213 209 207 206 196 186
189 189 176 155 161 171 172 179 179 177 179 178 180 187 184 186 201 208 204 198 188 183 195 228 243 249 248 247 248 242 241 243 240 239 238 237 236 231 230 237 239 235 227 221 220 221 222 222 226 232 232 230 232 231 225 217 219 227 227 225 227 229 232 233 234 232 228 227 228 230 232 232 231 231 227 224 224 224 220 216 217 216 214 213 205 198
193 194 191 172 168 164 165 186 186 178 175 179 181 185 184 180 191 212 211 204 194 182 187 214 243 254 249 238 231 231 241 243 233 229 228 232 237 237 238 238 239 240 232 224 222 222 224 226 228 232 233 231 232 231 227 219 219 225 227 226 227 229 232 233 236 238 236 234 233 234 235 234 233 232 229 228 227 228 227 222 220 221 220 217 211 207
206 203 203 189 175 172 174 187 187 176 168 173 183 186 178 167 176 230 222 210 207 194 192 208 232 243 242 236 229 227 236 238 230 226 223 223 232 238 240 236 231 233 232 228 226 223 222 224 224 224 229 232 231 230 227 221 220 225 226 226 226 228 230 230 233 237 238 236 235 237 238 237 236 234 231 230 228 227 228 227 225 224 224 221 215 213
220 212 212 202 183 179 183 186 184 181 180 186 189 183 176 170 173 227 224 217 225 218 212 223 235 233 227 230 231 229 240 242 237 234 230 226 229 230 232 232 228 228 229 227 228 227 224 224 222 219 221 228 231 229 227 223 220 222 224 224 225 227 227 225 227 233 236 235 234 235 238 238 237 235 232 231 230 228 229 229 228 226 226 225 222 219
231 226 221 214 199 191 188 182 177 181 185 189 188 183 183 184 182 196 203 204 230 241 232 235 245 240 230 229 230 232 243 241 236 239 237 234 232 228 227 229 229 228 227 227 229 233 232 230 231 228 221 225 234 234 230 226 221 221 223 224 224 223 223 222 223 229 233 233 231 232 235 236 236 234 232 232 232 231 230 231 230 228 226 226 226 224
234 236 231 221 215 206 197 187 174 174 176 171 171 180 192 196 189 189 197 205 227 235 222 217 235 241 236 237 235 231 232 227 228 233 231 231 233 231 230 230 230 230 230 231 231 231 229 225 228 231 226 229 242 243 235 230 224 221 222 224 222 221 222 221 220 224 229 229 229 230 233 234 234 233 231 231 233 234 233 233 233 231 229 227 228 227
231 235 231 225 224 217 205 196 179 173 170 160 159 181 198 203 204 207 214 224 234 233 219 214 226 233 232 237 240 238 231 228 241 245 233 229 229 227 228 228 230 232 235 238 237 234 232 224 217 217 219 224 235 238 234 230 226 223 224 225 223 223 225 222 218 222 227 226 226 229 233 235 235 234 232 230 231 233 235 235 235 235 234 231 231 231
233 235 230 228 231 228 219 200 179 171 168 166 172 189 196 200 209 211 213 225 232 227 219 221 227 227 225 229 234 238 237 237 247 251 239 230 224 221 222 225 228 231 233 237 238 236 238 232 220 212 210 215 221 226 227 224 223 223 224 225 226 229 232 229 222 222 225 227 227 230 235 237 236 235 233 231 231 233 235 237 238 237 237 236 235 234
231 231 227 226 226 228 228 206 183 175 173 179 186 191 192 197 204 203 205 218 225 220 219 224 228 228 225 222 225 230 237 239 233 229 232 230 224 223 224 225 227 229 231 232 231 228 228 228 225 217 211 212 216 219 221 221 222 223 222 223 226 230 235 236 231 227 227 228 228 230 234 237 238 237 236 234 233 235 237 238 239 238 239 242 242 240
239 234 228 226 222 223 226 209 189 181 180 186 190 191 193 196 199 202 206 214 218 216 217 220 225 230 227 221 221 222 226 233 226 222 233 235 225 223 226 227 227 226 226 227 228 229 228 229 228 219 211 212 216 217 217 219 223 225 223 223 225 228 232 236 237 234 231 231 231 232 234 236 237 238 239 237 235 236 238 240 242 241 239 242 245 245
251 245 234 230 226 226 227 218 207 199 191 190 194 195 195 197 200 203 203 207 214 216 216 215 221 230 230 226 225 221 221 234 237 232 239 239 230 224 225 229 232 228 224 223 225 229 230 233 231 221 213 212 213 213 211 210 213 216 218 220 223 226 228 232 238 238 236 235 235 232 233 237 240 241 241 240 238 239 241 241 243 244 240 240 245 245
251 249 240 231 225 226 229 224 221 218 207 199 200 198 196 199 205 205 201 203 211 216 218 218 222 229 229 227 229 226 225 234 239 239 241 240 237 236 232 229 230 230 227 224 224 228 229 231 229 224 220 218 216 214 212 209 210 211 212 216 220 223 225 229 236 240 238 237 235 231 228 232 237 240 243 246 244 244 245 243 243 246 245 244 247 248
244 242 240 235 227 224 226 223 223 226 221 213 209 204 202 207 210 208 204 205 210 215 219 222 225 228 226 226 233 235 231 231 233 234 237 237 240 244 243 237 233 233 233 229 226 227 227 224 219 218 220 221 221 222 220 219 217 211 210 213 218 222 227 231 233 237 240 240 237 233 230 229 230 231 238 245 244 245 247 246 244 245 246 247 247 249
245 237 238 240 234 228 223 215 212 220 226 225 223 217 215 218 216 212 211 210 212 214 217 222 227 229 228 230 236 242 241 239 237 236 235 236 240 242 243 242 239 238 238 236 233 230 226 221 217 217 218 218 218 219 220 222 220 215 214 216 219 221 226 229 227 231 243 246 240 235 233 233 233 233 236 239 239 243 248 248 247 245 244 246 247 248
250 238 241 240 236 231 223 212 205 211 220 227 232 231 225 223 221 217 217 219 219 217 217 221 226 229 231 233 235 242 248 247 245 246 245 243 242 240 241 242 242 240 239 236 235 233 229 224 220 219 218 217 216 215 217 219 218 218 220 223 225 226 225 224 222 225 232 237 239 239 235 234 237 238 240 240 240 241 245 246 247 246 244 244 244 245
249 233 239 241 235 233 228 218 212 215 222 227 231 234 232 230 228 223 219 221 223 221 220 222 224 227 232 235 237 241 245 245 244 245 246 246 244 241 242 243 243 241 238 235 235 233 229 226 226 223 220 220 221 219 218 221 222 223 226 229 232 232 227 220 216 218 219 220 228 236 237 235 235 236 239 242 244 244 244 245 246 246 245 246 246 246
255 236 239 243 236 232 233 228 220 218 224 228 229 233 236 238 239 233 222 218 221 221 222 224 227 229 232 236 239 241 242 243 244 241 239 243 246 243 242 241 240 238 235 232 230 227 225 228 233 232 226 226 230 232 232 233 232 229 229 230 230 229 228 224 221 222 224 223 226 232 236 237 236 235 236 240 243 245 245 246 247 247 246 247 248 249
265 253 249 246 238 233 234 233 227 223 226 229 231 234 237 239 242 240 228 221 222 224 224 227 230 231 233 236 240 241 241 242 245 241 237 240 244 241 239 240 239 236 233 231 229 226 227 235 241 239 233 229 230 232 234 237 234 228 223 219 221 230 236 234 230 230 233 233 233 236 239 242 242 240 237 238 241 244 245 246 248 249 249 249 249 249
264 260 256 249 242 235 233 234 232 231 234 235 234 235 237 238 242 243 238 232 229 228 228 229 231 231 234 237 242 243 241 241 244 244 240 241 243 242 241 243 245 240 233 230 230 231 234 239 243 244 243 243 242 238 235 234 233 230 226 226 236 248 252 248 243 243 244 243 242 243 244 246 245 242 240 240 241 243 245 247 248 250 252 253 253 252
260 255 254 252 244 234 231 231 231 234 241 244 243 241 239 240 243 246 245 243 237 231 230 232 233 233 236 241 246 250 247 243 244 244 243 244 246 246 246 247 248 245 239 234 234 236 236 236 237 239 238 239 241 241 240 240 241 241 242 248 257 264 263 260 257 257 256 255 253 251 252 253 252 249 246 245 245 246 248 250 251 252 255 256 256 255
259 255 247 243 243 239 235 233 231 234 239 244 250 253 250 247 248 248 248 247 243 238 237 238 238 239 242 246 250 253 253 248 245 243 243 245 248 247 246 246 245 244 241 238 237 238 239 239 240 242 240 237 238 240 243 246 249 251 254 258 263 265 265 263 262 262 263 262 260 258 257 255 254 251 249 249 251 251 251 252 254 255 255 256 256 255
255 254 247 247 251 248 242 239 237 239 242 244 251 258 261 257 253 250 249 248 246 244 245 246 245 246 249 252 253 254 254 252 249 246 244 244 244 242 241 241 243 246 246 242 238 236 238 240 243 245 245 244 242 241 243 247 251 253 256 258 260 261 261 262 261 262 264 264 261 259 255 252 250 249 250 251 253 253 252 253 253 252 251 253 253 252
251 251 250 256 261 256 251 249 248 247 248 250 251 256 263 263 256 252 251 251 251 252 252 251 251 251 253 254 255 255 254 252 251 250 248 245 241 238 237 240 245 250 252 251 246 240 239 239 242 244 246 247 246 244 244 247 250 253 255 257 258 259 259 259 259 259 260 259 258 257 254 252 251 250 250 249 250 250 250 250 250 248 247 248 248 250
257 259 258 257 260 261 261 261 263 265 263 260 258 259 264 264 260 257 256 254 255 257 255 254 254 255 255 255 255 255 254 252 251 252 253 252 248 245 246 248 251 253 254 255 253 249 245 241 242 244 245 246 248 248 247 248 250 253 255 256 257 258 258 258 256 256 255 255 254 253 251 250 250 251 250 249 248 248 247 248 249 248 244 241 243 248
266 265 264 260 260 264 266 266 268 270 267 264 263 266 271 270 265 262 258 257 258 259 258 257 257 257 258 258 257 257 257 256 254 253 254 254 253 253 253 255 257 258 259 258 256 254 249 244 244 247 247 247 247 249 250 249 250 252 253 254 255 256 257 257 256 255 254 254 254 252 250 248 248 249 251 252 250 248 246 246 248 249 247 245 246 250
280 272 268 263 260 259 259 261 263 265 265 266 266 266 269 269 267 263 260 259 260 261 261 260 260 260 261 262 262 263 262 261 260 259 257 256 255 255 256 258 259 259 259 257 256 254 252 247 245 247 250 251 250 250 251 251 251 251 252 252 253 253 253 254 254 254 254 254 253 252 250 248 246 247 249 250 249 248 246 245 246 248 249 250 251 251
282 276 270 265 261 259 260 261 263 265 267 268 266 266 266 265 264 265 264 262 261 262 262 261 262 263 264 265 266 267 267 267 265 263 262 260 259 258 258 258 259 260 259 257 255 255 255 253 249 248 249 251 252 252 252 251 251 252 252 252 252 252 251 252 252 252 252 253 253 253 251 249 248 247 247 247 246 245 245 244 244 246 249 251 252 251
270 269 266 265 267 268 269 269 268 268 268 268 268 270 271 268 266 266 267 266 265 265 264 263 263 265 267 269 270 270 270 270 268 266 264 262 260 259 259 259 260 261 260 258 257 256 255 255 254 252 250 250 251 252 252 252 252 252 252 252 252 251 251 251 251 251 251 251 253 253 252 251 249 248 247 246 245 244 245 246 246 246 248 249 248 247
264 265 269 274 278 279 279 278 276 275 274 273 273 275 275 274 271 269 268 268 268 270 270 268 266 267 269 271 273 274 274 274 272 269 265 262 259 258 258 258 260 261 261 260 258 257 256 255 255 254 253 251 251 251 252 253 253 253 253 253 253 252 251 251 251 250 250 249 250 252 252 250 249 247 245 245 245 245 245 246 246 245 245 246 246 247
269 268 271 277 283 287 287 285 282 280 279 278 277 274 273 275 276 273 271 269 269 271 273 273 271 270 271 272 274 275 277 277 276 274 270 266 262 258 257 257 258 261 263 263 261 260 259 257 256 255 255 254 253 253 253 253 253 253 253 253 253 253 253 253 252 251 250 248 247 248 248 247 246 245 244 243 244 244 244 244 244 244 243 245 248 250
272 272 272 273 278 284 286 283 281 279 279 281 280 278 276 277 279 280 278 275 274 273 274 275 276 275 274 274 275 276 276 277 278 278 276 273 270 265 261 259 260 261 262 262 262 262 261 261 259 258 257 256 256 256 255 255 255 254 252 251 251 252 254 255 254 253 252 250 248 248 248 246 245 244 243 242 243 243 242 242 243 243 243 244 245 249
269 273 276 275 277 279 278 278 279 279 280 281 280 279 279 278 278 281 281 278 277 277 277 277 277 277 277 277 276 276 276 276 276 276 275 274 272 270 267 265 263 263 262 261 260 259 259 260 261 260 259 259 259 259 259 259 258 258 256 254 252 252 254 256 255 253 252 252 252 251 249 246 244 244 244 243 243 242 242 241 242 243 243 243 243 248
Height
5856 5859 5861 5864 5869 5872 5876 5879 5882 5882 5882 5885 5887 5889 5890 5891 5894 5896 5896 5896 5896 5898 5899 5899 5900 5902 5903 5905 5906 5907 5907 5909 5910 5912 5913 5915 5916 5917 5919 5920 5921 5921 5922 5923 5924 5925 5926 5926 5926 5927 5928 5929 5930 5931 5932 5933 5934 5935 5935 5936 5937 5937 5938 5939 5939 5940 5940 5941 5941 5941 5942 5942 5943 5943 5943 5944 5944 5944 5945 5945 5946 5946 5947 5948 5948 5949
5853 5856 5859 5863 5867 5871 5875 5877 5879 5881 5882 5883 5886 5887 5888 5888 5892 5895 5895 5895 5896 5897 5897 5898 5899 5900 5901 5903 5903 5904 5905 5907 5909 5911 5912 5914 5915 5916 5918 5919 5920 5921 5922 5923 5924 5925 5926 5926 5927 5927 5928 5929 5930 5931 5932 5933 5934 5935 5935 5936 5937 5937 5938 5939 5940 5940 5941 5942 5942 5942 5943 5944 5944 5944 5945 5945 5946 5946 5947 5947 5947 5948 5948 5949 5949 5950
5850 5853 5857 5861 5865 5868 5872 5874 5876 5878 5881 5881 5883 5886 5886 5887 5890 5893 5894 5894 5894 5896 5897 5897 5897 5897 5899 5900 5900 5901 5904 5907 5909 5910 5911 5912 5914 5915 5917 5918 5919 5920 5921 5923 5924 5925 5926 5926 5927 5928 5928 5929 5930 5931 5932 5933 5934 5935 5936 5936 5937 5938 5938 5939 5940 5941 5942 5942 5943 5944 5944 5945 5945 5946 5946 5947 5947 5948 5948 5949 5949 5949 5950 5950 5950 5951
5848 5852 5856 5859 5863 5866 5870 5872 5872 5875 5877 5879 5881 5884 5885 5885 5888 5890 5891 5892 5892 5893 5896 5896 5895 5895 5897 5898 5899 5901 5904 5906 5906 5907 5909 5911 5912 5914 5915 5916 5918 5919 5921 5922 5923 5924 5925 5926 5927 5927 5928 5929 5930 5931 5932 5933 5934 5935 5936 5937 5938 5938 5939 5940 5941 5942 5942 5943 5944 5945 5945 5946 5947 5947 5948 5949 5949 5949 5950 5950 5951 5951 5952 5952 5952 5953
5848 5851 5855 5858 5861 5865 5868 5870 5871 5872 5875 5878 5880 5882 5882 5883 5887 5888 5888 5890 5890 5891 5893 5894 5895 5895 5895 5897 5898 5901 5904 5905 5905 5906 5907 5909 5910 5913 5914 5915 5916 5918 5919 5921 5922 5923 5925 5926 5926 5927 5928 5929 5930 5931 5932 5933 5934 5935 5936 5937 5938 5939 5939 5940 5941 5942 5943 5944 5945 5946 5946 5947 5948 5948 5949 5950 5950 5951 5951 5952 5953 5953 5953 5953 5954 5955
5846 5849 5852 5856 5860 5863 5866 5868 5868 5869 5872 5876 5880 5882 5881 5882 5885 5886 5887 5889 5890 5890 5891 5892 5894 5894 5895 5895 5897 5900 5902 5903 5903 5904 5906 5907 5908 5911 5913 5914 5915 5916 5918 5919 5921 5923 5924 5925 5926 5927 5928 5929 5929 5930 5932 5933 5934 5935 5936 5937 5938 5939 5940 5941 5941 5942 5943 5944 5945 5947 5947 5948 5948 5949 5950 5951 5951 5951 5952 5953 5954 5954 5955 5955 5955 5956
5843 5847 5850 5854 5857 5861 5864 5865 5865 5868 5872 5876 5881 5883 5881 5881 5883 5884 5885 5887 5888 5889 5890 5891 5892 5893 5894 5894 5895 5898 5900 5900 5901 5902 5904 5905 5906 5909 5911 5913 5914 5915 5917 5918 5920 5922 5923 5925 5925 5926 5928 5928 5929 5930 5931 5932 5934 5935 5936 5937 5938 5939 5940 5941 5942 5943 5943 5945 5946 5947 5948 5949 5949 5949 5950 5951 5952 5952 5953 5953 5954 5955 5955 5956 5956 5957
5843 5847 5849 5851 5854 5857 5860 5862 5865 5868 5872 5876 5879 5881 5880 5879 5882 5883 5884 5885 5887 5888 5889 5890 5890 5891 5892 5894 5895 5896 5897 5898 5899 5901 5902 5903 5905 5907 5909 5911 5913 5914 5915 5917 5919 5921 5923 5924 5925 5926 5927 5928 5929 5930 5931 5932 5933 5934 5935 5937 5938 5939 5940 5941 5942 5943 5944 5945 5946 5947 5948 5949 5950 5950 5951 5951 5952 5953 5954 5954 5955 5955 5956 5956 5957 5958
5844 5847 5848 5850 5852 5855 5858 5862 5864 5866 5869 5873 5875 5877 5878 5878 5880 5881 5882 5883 5884 5886 5888 5888 5889 5890 5891 5893 5894 5895 5896 5897 5898 5899 5900 5901 5903 5904 5907 5909 5911 5913 5914 5916 5918 5920 5922 5923 5924 5925 5926 5927 5929 5930 5931 5932 5933 5934 5935 5936 5937 5938 5940 5941 5942 5943 5944 5945 5946 5947 5948 5949 5950 5950 5951 5952 5952 5953 5954 5955 5955 5956 5956 5957 5957 5958
5842 5844 5846 5848 5850 5854 5857 5860 5861 5863 5868 5871 5872 5874 5876 5878 5880 5881 5882 5882 5882 5884 5886 5887 5888 5890 5891 5892 5893 5894 5895 5896 5896 5897 5898 5899 5900 5902 5904 5907 5909 5911 5912 5914 5916 5918 5920 5921 5922 5924 5925 5926 5928 5929 5931 5932 5933 5934 5935 5936 5937 5938 5940 5941 5942 5943 5944 5945 5946 5947 5948 5949 5949 5950 5951 5952 5952 5953 5954 5955 5956 5956 5957 5958 5958 5959
5840 5842 5843 5844 5848 5851 5854 5855 5858 5863 5867 5868 5869 5872 5873 5875 5878 5879 5880 5881 5880 5882 5884 5886 5887 5889 5890 5891 5892 5893 5894 5894 5895 5895 5896 5896 5897 5899 5901 5905 5907 5909 5911 5913 5915 5917 5919 5920 5921 5923 5924 5926 5927 5929 5930 5931 5932 5934 5935 5936 5937 5938 5940 5941 5942 5943 5944 5945 5946 5947 5948 5949 5949 5950 5951 5952 5952 5953 5954 5955 5956 5956 5957 5958 5958 5959
5838 5840 5842 5843 5846 5850 5851 5853 5856 5861 5865 5866 5868 5869 5870 5872 5874 5876 5878 5879 5880 5882 5884 5886 5886 5887 5889 5890 5891 5892 5893 5893 5894 5894 5895 5895 5895 5896 5899 5903 5905 5908 5910 5912 5914 5915 5917 5919 5920 5922 5923 5925 5926 5928 5930 5931 5932 5933 5934 5936 5937 5938 5939 5941 5942 5942 5943 5944 5946 5947 5947 5948 5949 5950 5951 5951 5952 5953 5954 5955 5955 5956 5957 5958 5958 5959
5836 5839 5840 5841 5845 5849 5851 5852 5855 5859 5863 5866 5867 5868 5869 5871 5873 5876 5877 5879 5881 5884 5885 5886 5886 5885 5887 5890 5891 5891 5891 5892 5893 5894 5894 5894 5894 5894 5897 5901 5904 5906 5908 5910 5912 5914 5916 5917 5919 5921 5922 5924 5925 5927 5929 5930 5931 5932 5934 5935 5936 5937 5939 5940 5941 5942 5943 5944 5945 5946 5947 5948 5949 5949 5950 5951 5952 5952 5953 5954 5955 5956 5957 5957 5958 5958
5836 5838 5840 5841 5845 5848 5850 5851 5855 5859 5862 5863 5865 5866 5868 5870 5871 5874 5877 5879 5883 5884 5885 5886 5886 5885 5887 5889 5890 5891 5891 5891 5892 5893 5893 5894 5894 5893 5896 5900 5902 5904 5907 5908 5910 5912 5914 5916 5918 5919 5921 5922 5924 5925 5928 5929 5931 5932 5933 5934 5935 5937 5938 5940 5941 5942 5943 5944 5945 5946 5947 5947 5948 5949 5950 5951 5951 5952 5953 5954 5955 5955 5956 5957 5958 5958
5834 5837 5839 5840 5843 5846 5848 5851 5853 5857 5860 5862 5864 5865 5867 5869 5870 5873 5877 5880 5882 5883 5884 5885 5884 5885 5887 5888 5889 5889 5890 5891 5891 5892 5892 5893 5894 5895 5897 5900 5902 5903 5905 5907 5909 5911 5913 5915 5916 5918 5919 5921 5922 5924 5926 5928 5929 5931 5932 5933 5934 5936 5937 5938 5940 5941 5942 5943 5944 5945 5946 5947 5948 5949 5949 5950 5951 5952 5953 5954 5954 5955 5955 5956 5957 5958
5831 5834 5836 5838 5840 5843 5846 5849 5851 5854 5857 5860 5863 5863 5865 5869 5871 5873 5875 5877 5878 5879 5881 5882 5881 5883 5885 5886 5887 5888 5889 5889 5890 5891 5892 5893 5894 5895 5897 5899 5901 5902 5903 5905 5907 5909 5911 5913 5914 5916 5918 5919 5920 5922 5925 5926 5928 5929 5930 5932 5933 5934 5936 5937 5939 5940 5941 5943 5944 5945 5946 5946 5947 5948 5949 5950 5951 5952 5952 5953 5954 5954 5955 5956 5956 5957
5830 5832 5834 5836 5839 5841 5844 5847 5849 5852 5855 5858 5861 5863 5865 5869 5870 5870 5872 5874 5876 5878 5880 5880 5880 5882 5884 5884 5886 5887 5888 5888 5889 5890 5891 5892 5893 5894 5896 5897 5899 5900 5901 5903 5906 5908 5909 5911 5913 5915 5916 5917 5919 5921 5923 5925 5926 5927 5929 5930 5932 5933 5935 5936 5937 5938 5940 5942 5943 5944 5945 5946 5947 5947 5948 5950 5951 5951 5952 5952 5953 5954 5954 5955 5955 5956
5829 5832 5833 5835 5839 5841 5842 5845 5848 5851 5853 5856 5860 5862 5864 5867 5868 5867 5869 5871 5874 5877 5878 5879 5880 5881 5882 5882 5884 5886 5887 5887 5888 5890 5891 5892 5893 5893 5895 5896 5898 5899 5900 5902 5904 5906 5908 5910 5911 5913 5914 5916 5917 5919 5922 5923 5923 5924 5926 5928 5930 5932 5933 5934 5936 5937 5938 5940 5942 5943 5944 5945 5946 5947 5947 5949 5950 5950 5951 5952 5952 5953 5954 5954 5955 5955
5828 5831 5831 5832 5836 5838 5840 5844 5847 5849 5850 5852 5856 5859 5861 5863 5866 5867 5868 5870 5872 5874 5876 5876 5877 5878 5878 5880 5882 5884 5885 5886 5887 5889 5891 5892 5892 5893 5894 5895 5896 5898 5899 5901 5903 5904 5906 5908 5910 5911 5912 5914 5914 5916 5919 5922 5922 5922 5924 5926 5928 5930 5932 5933 5934 5936 5937 5938 5940 5941 5943 5944 5945 5946 5946 5947 5948 5949 5950 5951 5951 5952 5953 5953 5954 5955
5826 5828 5828 5828 5830 5833 5837 5842 5845 5847 5848 5850 5852 5855 5857 5860 5863 5866 5868 5870 5871 5873 5874 5874 5873 5874 5875 5877 5880 5881 5883 5884 5885 5887 5889 5890 5891 5892 5893 5894 5896 5897 5899 5901 5902 5903 5904 5906 5908 5909 5910 5911 5912 5913 5916 5919 5920 5920 5922 5924 5926 5928 5930 5931 5933 5934 5935 5937 5938 5940 5941 5942 5943 5944 5945 5946 5947 5948 5948 5949 5950 5951 5952 5952 5953 5954
5824 5826 5827 5828 5829 5830 5833 5836 5840 5843 5847 5851 5852 5853 5856 5859 5862 5864 5867 5868 5870 5870 5871 5871 5871 5871 5872 5874 5876 5879 5881 5881 5882 5883 5885 5888 5889 5891 5892 5894 5895 5896 5897 5899 5900 5901 5902 5904 5905 5906 5908 5908 5909 5910 5913 5917 5919 5919 5920 5922 5924 5926 5928 5929 5931 5932 5933 5935 5936 5938 5939 5940 5941 5942 5943 5944 5945 5946 5947 5948 5949 5949 5950 5951 5952 5952
5824 5825 5826 5827 5828 5828 5828 5831 5836 5840 5844 5847 5850 5854 5856 5859 5861 5863 5865 5866 5868 5869 5869 5869 5869 5869 5870 5871 5873 5876 5878 5879 5880 5881 5882 5884 5886 5889 5890 5892 5893 5894 5895 5896 5897 5898 5899 5900 5902 5904 5905 5906 5906 5908 5911 5914 5917 5918 5919 5920 5921 5923 5925 5927 5928 5930 5931 5933 5934 5935 5936 5938 5939 5940 5941 5942 5943 5944 5945 5946 5947 5948 5949 5949 5950 5951
5822 5823 5824 5825 5826 5827 5828 5832 5836 5840 5841 5843 5847 5852 5856 5858 5859 5862 5864 5865 5866 5868 5869 5868 5867 5867 5869 5869 5871 5874 5876 5877 5878 5880 5881 5881 5883 5886 5887 5889 5890 5890 5891 5892 5894 5895 5896 5898 5901 5903 5904 5904 5905 5906 5908 5911 5914 5916 5917 5918 5919 5920 5922 5924 5926 5927 5929 5931 5932 5933 5934 5935 5937 5938 5939 5940 5941 5942 5943 5944 5946 5947 5947 5948 5949 5950
5820 5821 5823 5825 5826 5826 5828 5830 5833 5837 5839 5841 5844 5849 5854 5855 5856 5859 5861 5863 5864 5865 5866 5865 5864 5865 5867 5868 5870 5873 5874 5875 5876 5879 5880 5879 5880 5882 5883 5885 5886 5886 5888 5891 5893 5894 5896 5899 5902 5903 5904 5904 5905 5905 5907 5909 5911 5913 5915 5916 5917 5918 5920 5921 5923 5925 5926 5928 5929 5930 5931 5933 5934 5935 5936 5938 5939 5940 5941 5942 5943 5945 5946 5947 5947 5948
5819 5820 5822 5824 5825 5826 5828 5830 5832 5834 5837 5841 5844 5848 5851 5852 5854 5856 5857 5859 5859 5858 5859 5860 5860 5862 5865 5866 5869 5871 5872 5873 5874 5876 5878 5878 5878 5880 5881 5883 5884 5887 5889 5891 5892 5892 5893 5896 5898 5900 5902 5904 5905 5905 5906 5906 5908 5911 5912 5914 5915 5916 5918 5919 5921 5922 5924 5925 5927 5928 5929 5930 5931 5932 5933 5935 5936 5938 5939 5940 5941 5942 5944 5945 5945 5946
5817 5817 5819 5822 5824 5825 5827 5829 5831 5833 5836 5840 5841 5842 5844 5846 5847 5849 5851 5854 5854 5852 5854 5857 5857 5859 5862 5864 5866 5868 5871 5872 5873 5874 5876 5876 5877 5878 5881 5883 5884 5886 5888 5889 5890 5891 5892 5892 5893 5895 5898 5901 5902 5903 5903 5904 5906 5908 5910 5911 5913 5914 5915 5917 5919 5920 5921 5922 5924 5925 5927 5928 5929 5930 5931 5932 5933 5934 5936 5938 5939 5940 5941 5942 5943 5944
5814 5815 5817 5819 5821 5824 5825 5827 5829 5831 5833 5834 5833 5832 5836 5840 5843 5846 5849 5851 5851 5850 5851 5853 5853 5855 5858 5861 5863 5866 5868 5870 5871 5871 5873 5874 5875 5876 5878 5880 5881 5882 5883 5885 5887 5890 5892 5892 5892 5892 5894 5896 5898 5899 5900 5901 5903 5905 5907 5909 5911 5912 5913 5915 5917 5918 5919 5920 5921 5923 5924 5925 5926 5927 5928 5929 5930 5932 5933 5935 5937 5938 5939 5940 5941 5942
5811 5812 5814 5816 5818 5820 5822 5824 5826 5827 5828 5830 5829 5829 5833 5838 5841 5844 5846 5844 5844 5845 5846 5847 5849 5851 5854 5857 5861 5864 5866 5868 5868 5868 5869 5871 5873 5874 5875 5876 5876 5878 5880 5881 5884 5886 5888 5889 5889 5889 5890 5891 5893 5895 5896 5898 5900 5902 5904 5906 5908 5910 5911 5912 5914 5915 5917 5918 5918 5919 5920 5922 5923 5925 5926 5927 5928 5930 5931 5932 5934 5935 5937 5938 5939 5940
5809 5810 5811 5812 5814 5815 5818 5821 5823 5824 5826 5827 5827 5828 5830 5834 5837 5838 5839 5839 5840 5841 5842 5844 5846 5846 5850 5855 5860 5863 5864 5864 5865 5867 5867 5868 5870 5872 5873 5873 5873 5874 5877 5879 5882 5883 5885 5886 5887 5887 5886 5887 5890 5892 5894 5895 5898 5900 5902 5903 5905 5906 5908 5909 5911 5912 5914 5915 5916 5917 5917 5918 5920 5922 5923 5925 5926 5927 5928 5930 5931 5932 5935 5936 5936 5937
5808 5809 5809 5810 5812 5813 5814 5818 5821 5822 5824 5825 5825 5825 5826 5829 5830 5831 5834 5837 5839 5839 5839 5842 5843 5843 5847 5853 5857 5860 5861 5860 5862 5865 5865 5865 5868 5871 5873 5873 5872 5872 5873 5877 5879 5881 5883 5885 5885 5885 5884 5884 5886 5887 5888 5889 5892 5895 5897 5899 5901 5902 5904 5906 5907 5908 5910 5911 5912 5914 5915 5916 5918 5919 5922 5923 5925 5925 5926 5927 5928 5929 5931 5933 5933 5934
5806 5807 5807 5807 5809 5811 5812 5815 5818 5819 5821 5822 5822 5822 5823 5824 5825 5827 5831 5834 5836 5837 5838 5839 5840 5842 5846 5849 5851 5854 5856 5857 5859 5861 5861 5862 5865 5867 5870 5872 5872 5871 5872 5873 5874 5876 5879 5881 5882 5884 5884 5884 5885 5885 5885 5886 5887 5889 5891 5895 5897 5899 5900 5902 5903 5904 5905 5906 5908 5910 5912 5914 5916 5918 5920 5922 5923 5924 5924 5925 5925 5926 5928 5930 5931 5932
5804 5804 5805 5806 5807 5808 5810 5813 5815 5816 5818 5819 5819 5821 5822 5822 5823 5825 5828 5830 5833 5835 5836 5837 5838 5840 5843 5845 5845 5848 5851 5854 5857 5858 5859 5860 5861 5863 5866 5868 5870 5871 5871 5871 5871 5873 5875 5876 5879 5881 5882 5883 5884 5885 5886 5886 5886 5887 5889 5891 5894 5896 5897 5899 5900 5901 5901 5902 5903 5906 5908 5910 5912 5915 5917 5919 5921 5922 5922 5922 5923 5924 5925 5927 5928 5929
5802 5803 5804 5804 5806 5807 5808 5810 5812 5814 5815 5817 5819 5821 5822 5821 5821 5824 5826 5828 5830 5832 5834 5835 5835 5837 5840 5842 5843 5844 5846 5850 5853 5856 5858 5859 5859 5860 5862 5863 5865 5867 5869 5869 5870 5872 5872 5873 5876 5878 5878 5879 5881 5883 5884 5884 5885 5886 5887 5889 5891 5893 5894 5895 5896 5897 5897 5898 5900 5902 5906 5908 5909 5911 5913 5914 5916 5918 5919 5920 5920 5921 5923 5925 5925 5926
5801 5802 5802 5803 5804 5806 5806 5808 5810 5811 5813 5814 5816 5818 5819 5819 5819 5821 5823 5825 5827 5829 5830 5831 5832 5834 5837 5839 5840 5842 5843 5845 5849 5852 5855 5856 5856 5856 5857 5858 5859 5861 5864 5866 5867 5868 5868 5870 5872 5874 5874 5875 5876 5878 5880 5882 5883 5883 5884 5886 5888 5890 5891 5892 5893 5893 5894 5896 5898 5900 5903 5905 5906 5908 5909 5909 5912 5914 5915 5916 5917 5918 5920 5921 5922 5923
5800 5800 5801 5802 5803 5804 5805 5806 5808 5809 5811 5812 5812 5814 5815 5815 5816 5819 5822 5823 5825 5826 5827 5828 5829 5831 5833 5835 5837 5839 5840 5843 5846 5848 5850 5850 5850 5851 5851 5853 5856 5858 5860 5862 5863 5863 5865 5866 5867 5869 5870 5872 5874 5876 5877 5879 5880 5881 5881 5883 5885 5886 5888 5889 5891 5892 5893 5894 5896 5897 5899 5902 5903 5905 5906 5907 5908 5910 5912 5913 5914 5915 5916 5916 5917 5919
5799 5799 5800 5801 5802 5803 5804 5805 5806 5807 5807 5808 5809 5810 5812 5813 5815 5817 5819 5820 5822 5823 5825 5826 5827 5829 5831 5833 5834 5835 5837 5839 5841 5843 5844 5843 5844 5846 5846 5848 5852 5854 5856 5859 5859 5860 5862 5863 5864 5866 5869 5870 5872 5873 5873 5875 5877 5878 5879 5880 5882 5883 5885 5886 5888 5891 5892 5892 5893 5894 5896 5899 5900 5901 5902 5903 5904 5906 5908 5909 5910 5911 5912 5913 5914 5915
5798 5799 5799 5799 5800 5801 5802 5803 5804 5805 5804 5805 5807 5808 5809 5811 5812 5813 5815 5818 5819 5819 5822 5824 5825 5826 5828 5829 5830 5832 5833 5835 5836 5837 5838 5838 5839 5841 5843 5844 5847 5850 5852 5855 5856 5857 5859 5861 5862 5864 5866 5868 5869 5870 5871 5872 5874 5875 5877 5878 5880 5881 5882 5884 5886 5887 5889 5890 5890 5891 5892 5895 5897 5898 5899 5899 5900 5902 5903 5905 5906 5907 5908 5909 5910 5911
5798 5798 5798 5799 5799 5800 5801 5801 5802 5802 5802 5803 5805 5806 5807 5809 5810 5811 5812 5814 5815 5816 5820 5822 5821 5822 5823 5824 5826 5828 5829 5830 5832 5832 5833 5833 5835 5838 5840 5841 5843 5845 5848 5851 5853 5854 5856 5859 5860 5861 5863 5865 5867 5868 5869 5870 5872 5874 5875 5876 5877 5879 5880 5881 5883 5884 5885 5886 5887 5888 5889 5891 5893 5894 5895 5896 5897 5898 5899 5901 5902 5903 5904 5905 5906 5907
5798 5797 5797 5798 5798 5799 5799 5800 5800 5801 5801 5801 5803 5804 5805 5807 5808 5808 5808 5809 5811 5815 5818 5818 5818 5818 5819 5819 5822 5824 5825 5826 5828 5829 5830 5831 5833 5836 5838 5839 5840 5842 5844 5847 5849 5850 5852 5855 5856 5857 5858 5860 5863 5864 5865 5867 5868 5869 5870 5871 5873 5875 5877 5878 5880 5881 5882 5883 5884 5885 5887 5889 5890 5891 5892 5893 5895 5896 5897 5898 5899 5900 5901 5901 5902 5903
5797 5797 5796 5796 5796 5797 5797 5797 5798 5798 5799 5800 5801 5802 5804 5804 5805 5805 5805 5806 5809 5813 5814 5814 5815 5815 5815 5816 5818 5820 5822 5823 5825 5826 5828 5829 5831 5833 5834 5834 5835 5837 5840 5843 5846 5848 5849 5850 5852 5853 5854 5856 5858 5859 5861 5862 5863 5864 5866 5867 5869 5871 5873 5875 5877 5878 5879 5881 5883 5884 5885 5886 5887 5887 5889 5890 5892 5893 5894 5895 5896 5897 5897 5897 5898 5899
5795 5795 5795 5795 5795 5796 5795 5795 5796 5797 5798 5799 5800 5801 5801 5802 5802 5803 5803 5804 5807 5809 5809 5810 5812 5812 5812 5814 5815 5817 5819 5821 5822 5824 5825 5827 5828 5829 5830 5831 5832 5835 5836 5839 5842 5844 5846 5847 5848 5849 5851 5853 5855 5856 5857 5858 5859 5860 5862 5864 5866 5867 5869 5872 5874 5875 5877 5878 5880 5881 5882 5883 5884 5884 5885 5887 5888 5889 5890 5891 5891 5892 5893 5894 5895 5896
5794 5794 5794 5794 5794 5794 5794 5794 5795 5796 5797 5798 5798 5799 5799 5799 5800 5800 5801 5802 5804 5805 5805 5807 5808 5809 5810 5811 5812 5814 5815 5817 5819 5820 5822 5823 5825 5826 5827 5828 5830 5831 5833 5834 5837 5839 5842 5843 5845 5846 5847 5848 5850 5852 5854 5854 5855 5856 5857 5860 5861 5863 5864 5867 5869 5871 5873 5874 5875 5877 5879 5880 5881 5881 5882 5883 5884 5885 5886 5886 5886 5888 5889 5890 5891 5892
5793 5793 5793 5793 5793 5793 5793 5794 5794 5795 5796 5796 5796 5797 5797 5797 5797 5798 5799 5801 5801 5801 5801 5804 5806 5806 5807 5808 5809 5810 5812 5813 5815 5816 5817 5819 5821 5823 5824 5825 5827 5828 5829 5830 5831 5834 5837 5839 5841 5842 5843 5843 5844 5846 5848 5850 5851 5852 5853 5855 5857 5858 5859 5861 5863 5865 5867 5869 5870 5872 5873 5875 5876 5877 5877 5878 5880 5881 5882 5882 5882 5883 5885 5886 5887 5888
5792 5792 5791 5792 5792 5792 5792 5792 5793 5794 5794 5794 5795 5795 5795 5795 5796 5796 5797 5799 5799 5798 5799 5801 5802 5803 5804 5805 5806 5807 5808 5809 5811 5812 5813 5815 5817 5819 5820 5822 5823 5825 5826 5826 5827 5828 5831 5833 5836 5838 5838 5839 5839 5840 5842 5844 5846 5847 5848 5850 5852 5854 5855 5856 5858 5860 5862 5863 5864 5866 5868 5870 5871 5872 5873 5874 5875 5877 5878 5878 5878 5879 5881 5882 5884 5885
5790 5790 5790 5791 5791 5791 5791 5791 5791 5792 5793 5793 5793 5794 5794 5794 5794 5794 5795 5796 5796 5795 5796 5798 5799 5800 5801 5802 5803 5804 5805 5806 5807 5808 5809 5811 5813 5814 5816 5818 5819 5821 5822 5823 5823 5824 5825 5827 5830 5832 5834 5835 5836 5837 5837 5838 5840 5842 5843 5845 5847 5849 5850 5851 5853 5855 5857 5858 5859 5860 5862 5864 5866 5867 5868 5869 5871 5872 5873 5874 5875 5875 5876 5878 5879 5880
5788 5787 5787 5788 5788 5789 5789 5789 5790 5791 5791 5792 5792 5792 5792 5792 5792 5792 5793 5794 5794 5793 5794 5795 5796 5797 5798 5798 5799 5801 5802 5803 5804 5804 5805 5807 5808 5810 5811 5813 5815 5816 5818 5819 5820 5821 5822 5823 5825 5826 5829 5830 5832 5833 5834 5835 5836 5837 5838 5839 5841 5842 5844 5846 5848 5850 5852 5853 5853 5855 5857 5859 5861 5862 5863 5864 5866 5867 5868 5869 5870 5872 5873 5873 5873 5874
5786 5785 5785 5786 5787 5787 5788 5788 5789 5789 5790 5790 5790 5790 5790 5791 5791 5791 5791 5792 5792 5792 5792 5793 5794 5794 5795 5795 5796 5797 5798 5800 5801 5801 5802 5803 5804 5805 5807 5808 5810 5812 5813 5814 5816 5817 5818 5819 5820 5822 5823 5825 5827 5828 5829 5831 5832 5832 5833 5834 5835 5836 5838 5840 5842 5844 5846 5847 5848 5850 5852 5854 5855 5857 5858 5859 5861 5862 5863 5864 5866 5868 5868 5867 5867 5868
5784 5784 5784 5785 5786 5786 5786 5786 5787 5788 5788 5788 5789 5789 5789 5788 5789 5789 5790 5790 5790 5790 5790 5790 5791 5792 5792 5792 5793 5794 5794 5796 5797 5798 5799 5800 5800 5801 5802 5804 5805 5807 5808 5810 5811 5813 5814 5815 5816 5817 5819 5820 5822 5823 5824 5825 5826 5827 5828 5829 5830 5832 5833 5834 5836 5838 5839 5841 5843 5845 5847 5848 5850 5851 5852 5854 5855 5856 5857 5859 5861 5862 5863 5862 5862 5864
5783 5783 5783 5784 5785 5785 5785 5785 5785 5786 5786 5786 5787 5787 5787 5787 5786 5787 5787 5787 5787 5788 5788 5788 5788 5789 5790 5790 5790 5791 5792 5792 5793 5795 5796 5796 5797 5797 5799 5799 5800 5802 5803 5805 5806 5807 5808 5809 5810 5812 5814 5815 5817 5818 5819 5820 5821 5821 5823 5824 5825 5826 5828 5829 5830 5831 5833 5834 5836 5839 5841 5842 5844 5845 5847 5848 5849 5850 5852 5854 5855 5856 5857 5857 5858 5859
5782 5782 5782 5783 5783 5783 5783 5782 5783 5783 5784 5784 5784 5784 5785 5785 5785 5785 5785 5785 5785 5785 5785 5786 5786 5786 5787 5787 5788 5789 5789 5790 5791 5792 5793 5793 5793 5794 5795 5795 5796 5797 5798 5799 5801 5802 5803 5804 5805 5807 5808 5809 5811 5813 5814 5815 5815 5816 5818 5819 5820 5821 5822 5823 5824 5825 5827 5828 5830 5831 5833 5835 5838 5840 5841 5842 5843 5845 5847 5847 5848 5850 5851 5851 5852 5853
5780 5779 5780 5780 5781 5781 5781 5780 5781 5781 5782 5782 5782 5782 5783 5783 5783 5783 5783 5783 5783 5783 5783 5783 5783 5784 5784 5784 5784 5785 5786 5786 5787 5789 5790 5791 5791 5791 5792 5792 5793 5793 5793 5794 5796 5797 5798 5799 5800 5801 5802 5803 5805 5806 5808 5809 5810 5810 5812 5813 5815 5816 5817 5818 5818 5820 5821 5822 5823 5824 5826 5828 5831 5833 5835 5836 5837 5839 5841 5841 5842 5843 5844 5845 5846 5847